Location: Florence Hill
(32.6732°N, 97.0153°W)
Time: 10:39:41
(UTC+00:00)

Daily predictions for brighter satellites

Satellite Brightness Start Highest point End
(mag) Time Altitude Azimuth Time Altitude Azimuth Time Altitude Azimuth
CZ-2C R/B 3.1 12:03:40 10° N 12:07:06 38° WNW 12:10:27 10° SW
Meteor 1-27 Rocket 3.9 12:01:17 10° S 12:07:11 86° W 12:13:01 10° N
SKYMED 2 3.6 12:03:02 10° S 12:07:18 61° W 12:11:36 10° NNW
Cosmos 1607 3.9 12:04:33 10° SSW 12:10:39 82° WNW 12:16:51 10° NNE
COBE Rocket 4.4 12:05:48 10° NNE 12:10:59 72° E 12:16:04 10° S
